Weather History for St. Joseph, MO

Change the Weather History Date:

Sunday, January 27, 2013

  Actual Average Record
Temperature  
Mean Temperature 46 °F 28 °F  
Max Temperature 55 °F 38 °F 67 °F (2002)
Min Temperature 37 °F 18 °F -17 °F (1936)
Degree Days  
Heating Degree Days 19 37  
Month to date heating degree days 951 1022  
Since 1 July heating degree days 3047 3235  
Cooling Degree Days 0 0  
Month to date cooling degree days 0 0  
Year to date cooling degree days 0 0  
Moisture  
Dew Point 42 °F    
Average Humidity 75    
Maximum Humidity 100    
Minimum Humidity 50    
Precipitation  
Precipitation 0.13 in 0.02 in 0.90 in (1949)
Month to date precipitation 0.43 0.47  
Year to date precipitation 0.43 0.47  
Sea Level Pressure  
Sea Level Pressure 29.86 in    
Wind  
Wind Speed 9 mph (South)    
Max Wind Speed 18 mph    
Max Gust Speed 21 mph    
Visibility 6 miles    
Events Rain    
T = Trace of Precipitation, MM = Missing Value Source: NWS Daily Summary

Daily Weather History Graph

Daily Weather History Graph

Search for Another Location

Airport:

Trip Planner

Search our weather history database for the weather conditions in past years. The results will help you decide how hot, cold, wet, or windy it might be!

Date:

Astronomy

Jan. 27, 2013 Rise Set
Actual Time 7:31 AM CST 5:33 PM CST
Civil Twilight 7:02 AM CST 6:02 PM CST
Nautical Twilight 6:30 AM CST 6:35 PM CST
Astronomical Twilight 5:58 AM CST 7:06 PM CST
Moon 6:28 PM CST (1/27) 7:25 AM CST (1/27)
Length of Visible Light 10h 59m
Length of Day
10h 01m
Full, 100% of the Moon is Illuminated
Jan 27
Full
Feb 3
Last Quarter
Feb 10
New
Feb 17
First Quarter
Feb 25
Full

Hourly Weather History & Observations

Time (CST) Temp. Windchill Dew Point Humidity Pressure Visibility Wind Dir Wind Speed Gust Speed Precip Events Conditions
12:53 AM 39.9 °F 33.4 °F 24.1 °F 53% 30.08 in 10.0 mi SE 10.4 mph - N/A   Mostly Cloudy
1:53 AM 37.0 °F 29.8 °F 30.0 °F 76% 30.06 in 7.0 mi SSE 10.4 mph - 0.02 in Rain Light Rain
2:03 AM 37.4 °F 29.8 °F 30.2 °F 75% 30.06 in 8.0 mi SSE 11.5 mph - 0.00 in Rain Light Rain
2:53 AM 37.0 °F 31.0 °F 33.1 °F 86% 30.06 in 6.0 mi SSE 8.1 mph - 0.04 in Rain Light Rain
3:42 AM 37.4 °F 30.3 °F 33.8 °F 87% 30.02 in 6.0 mi SE 10.4 mph - 0.05 in Rain Light Rain
3:53 AM 37.0 °F 30.4 °F 34.0 °F 89% 30.03 in 9.0 mi SE 9.2 mph - 0.05 in   Overcast
4:04 AM 37.4 °F 30.8 °F 33.8 °F 87% 30.02 in 9.0 mi SSE 9.2 mph - 0.00 in   Overcast
4:53 AM 37.0 °F 31.0 °F 34.0 °F 89% 30.01 in 9.0 mi SE 8.1 mph - 0.00 in   Overcast
5:42 AM 37.4 °F 29.8 °F 35.6 °F 93% 29.96 in 10.0 mi SE 11.5 mph - 0.00 in   Overcast
5:53 AM 37.9 °F 32.7 °F 35.1 °F 89% 29.97 in 10.0 mi SE 6.9 mph - 0.00 in   Overcast
6:53 AM 39.0 °F 32.8 °F 35.1 °F 86% 29.96 in 10.0 mi SSE 9.2 mph - 0.01 in   Overcast
7:01 AM 39.2 °F 32.5 °F 35.6 °F 87% 29.95 in 10.0 mi SSE 10.4 mph - N/A   Overcast
7:53 AM 39.0 °F 32.3 °F 35.1 °F 86% 29.94 in 10.0 mi SSE 10.4 mph - 0.01 in Rain Light Rain
8:06 AM 39.2 °F 32.0 °F 35.6 °F 87% 29.92 in 10.0 mi SSE 11.5 mph - 0.00 in Rain Light Rain
8:53 AM 39.9 °F 33.4 °F 37.0 °F 89% 29.93 in 6.0 mi SSE 10.4 mph - 0.00 in   Overcast
9:06 AM 39.2 °F 32.5 °F 37.4 °F 93% 29.91 in 2.5 mi SSE 10.4 mph - N/A   Overcast
9:26 AM 39.2 °F 33.0 °F 37.4 °F 93% 29.90 in 1.5 mi SE 9.2 mph - N/A   Overcast
9:53 AM 39.9 °F 33.9 °F 39.0 °F 97% 29.91 in 1.2 mi SSE 9.2 mph - N/A   Overcast
10:53 AM 41.0 °F 36.4 °F 39.9 °F 96% 29.89 in 1.2 mi SE 6.9 mph - N/A   Overcast
11:32 AM 44.6 °F 39.2 °F 42.8 °F 93% 29.86 in 2.5 mi SSE 10.4 mph - N/A   Overcast
11:53 AM 46.0 °F 40.2 °F 43.0 °F 89% 29.85 in 2.5 mi SSE 12.7 mph - N/A   Overcast
12:03 PM 46.4 °F 40.4 °F 44.6 °F 93% 29.83 in 3.0 mi South 13.8 mph - N/A   Overcast
12:44 PM 46.4 °F 41.1 °F 44.6 °F 93% 29.81 in 2.5 mi South 11.5 mph - N/A   Overcast
12:53 PM 46.9 °F - 45.0 °F 93% 29.82 in 2.0 mi South 10.4 mph - N/A   Overcast
1:08 PM 46.4 °F 41.5 °F 44.6 °F 93% 29.80 in 1.5 mi South 10.4 mph - N/A   Overcast
1:53 PM 48.9 °F - 46.9 °F 93% 29.77 in 1.5 mi South 10.4 mph - N/A   Overcast
2:10 PM 48.2 °F - 46.4 °F 93% 29.75 in 2.0 mi South 11.5 mph - N/A   Overcast
2:32 PM 50.0 °F - 48.2 °F 94% 29.75 in 3.0 mi South 11.5 mph - N/A   Overcast
2:50 PM 50.0 °F - 48.2 °F 94% 29.75 in 2.5 mi South 11.5 mph - N/A   Overcast
2:53 PM 50.0 °F - 48.0 °F 93% 29.76 in 2.5 mi South 10.4 mph - N/A   Overcast
3:12 PM 51.8 °F - 48.2 °F 88% 29.75 in 3.0 mi South 10.4 mph - N/A   Overcast
3:48 PM 51.8 °F - 48.2 °F 88% 29.75 in 5.0 mi South 8.1 mph - N/A   Overcast
3:53 PM 52.0 °F - 48.0 °F 86% 29.75 in 5.0 mi South 9.2 mph - N/A   Overcast
4:24 PM 51.8 °F - 48.2 °F 88% 29.74 in 6.0 mi South 6.9 mph - N/A   Overcast
4:53 PM 51.1 °F - 48.0 °F 89% 29.75 in 6.0 mi South 6.9 mph - N/A   Overcast
5:53 PM 50.0 °F - 46.9 °F 89% 29.75 in 8.0 mi SSW 5.8 mph - N/A   Overcast
6:00 PM 48.2 °F - 46.4 °F 93% 29.75 in 8.0 mi SSW 4.6 mph - N/A   Overcast
6:53 PM 46.0 °F 42.5 °F 45.0 °F 96% 29.76 in 5.0 mi South 6.9 mph - N/A   Mostly Cloudy
7:53 PM 48.9 °F - 46.0 °F 90% 29.77 in 7.0 mi South 4.6 mph - N/A   Overcast
8:53 PM 51.1 °F - 48.0 °F 89% 29.77 in 7.0 mi South 10.4 mph - N/A   Clear
9:53 PM 53.1 °F - 48.9 °F 86% 29.78 in 10.0 mi SSW 12.7 mph - N/A   Mostly Cloudy
10:16 PM 53.6 °F - 50.0 °F 88% 29.78 in 10.0 mi SW 11.5 mph - N/A   Overcast
10:53 PM 55.0 °F - 51.1 °F 86% 29.81 in 10.0 mi WSW 10.4 mph - N/A   Overcast
11:07 PM 53.6 °F - 48.2 °F 82% 29.82 in 9.0 mi WNW 13.8 mph - N/A   Overcast
11:53 PM 48.0 °F - 45.0 °F 89% 29.84 in 6.0 mi WNW 10.4 mph - N/A   Overcast